Content
SEND FEEDBACK

Daily
Averages
Monthly
Summary
United States of America

BOX ELDER, SOUTH DAKOTA


Home > North America > United States > South Dakota
Elevation: 3170 feet     Latitude: 44 09N     Longitude: 103 06W

WEATHER
 
SELECT A DAY
Number of Records: 207,733;   Date Range: 1/1/95 - 10/20/14
 
SHARE

PRINT THIS DATA

[ ← Previous Day ]
WEATHER ALMANAC - FEBRUARY 13, 2013
[ Next Day → ]
[ °C ]   °F
Weather ElementAverageHighLow
Temperature37.8 °F49.3 °F (12:55 pm)28 °F (5:55 am)
Dewpoint23.7 °F29.3 °F (6:55 pm)19 °F (11:55 pm)
Humidity58.6 %85 % (6:55 pm)35 % (12:55 pm)
Barometer29.86 in29.99 in (11:55 pm)29.77 in (12:55 pm)
Wind Speed20.2 mph36.8 mph (1:55 pm)
Wind Gust42.6 mph (1:55 pm)
Weather ElementAverage
Visibility10 mi
Wind DirectionWNW (303.6 °)

Weather ElementTotal
Precipitation---
Heating Degree Days26.4 (Base 65)
Averaged from 25 records on February 13, 2013
WEATHER CONDITIONS BREAKOUT
WIND DIRECTION BREAKOUT
WEATHER BY HOUR - FEBRUARY 13, 2013
[ °C ]   °F
Local TimeTemperatureDewpointHumidityBarometerVisibilityWind DirectionWind SpeedGust SpeedPrecipitationEventsConditions
1:55 AM31.8 °F19.9 °F62 %29.88 in10.0 miWSW (250°)11.5 mphClear
2:55 AM29.3 °F19.6 °F67 %29.86 in10.0 miWSW (250°)9.2 mphClear
3:55 AM29.1 °F19.8 °F68 %29.85 in10.0 miSW (230°)8.1 mphClear
4:55 AM29.8 °F20.8 °F69 %29.85 in10.0 miWSW (250°)9.2 mphClear
5:55 AM28.0 °F19.4 °F70 %29.83 in10.0 miWest (280°)6.9 mphClear
6:55 AM33.4 °F21.9 °F63 %29.82 in10.0 miWest (260°)9.2 mphMostly Cloudy
7:55 AM40.6 °F23.4 °F50 %29.81 in10.0 miWest (280°)11.5 mph20.7 mphOvercast
8:55 AM44.2 °F21.9 °F41 %29.80 in10.0 miNW (310°)19.6 mph23.0 mphOvercast
9:55 AM46.9 °F23.0 °F39 %29.78 in10.0 miNW (320°)26.5 mph33.4 mphMostly Cloudy
10:55 AM47.5 °F23.0 °F38 %29.78 in10.0 miNW (320°)29.9 mph39.1 mphPartly Cloudy
11:55 AM47.3 °F24.3 °F40 %29.78 in10.0 miNW (310°)31.1 mph39.1 mphMostly Cloudy
12:55 PM49.3 °F22.6 °F35 %29.77 in10.0 miWNW (300°)29.9 mph39.1 mphPartly Cloudy
1:55 PM47.3 °F27.9 °F47 %29.78 in10.0 miNNW (330°)36.8 mph42.6 mphMostly Cloudy
2:55 PM43.5 °F25.2 °F48 %29.81 in10.0 miNNW (330°)31.1 mph42.6 mphMostly Cloudy
3:55 PM41.9 °F25.3 °F52 %29.83 in10.0 miNW (320°)28.8 mph36.8 mphClear
4:55 PM40.6 °F25.7 °F55 %29.86 in10.0 miNW (310°)23.0 mph32.2 mphClear
5:55 PM39.6 °F25.3 °F57 %29.90 in10.0 miNW (320°)23.0 mphPartly Cloudy
6:34 PM37.4 °F26.6 °F65 %29.94 in10.0 miNorth (350°)27.6 mph35.7 mphRainLight Rain
6:50 PM33.8 °F28.4 °F81 %29.94 in10.0 miNorth (360°)16.1 mphScattered Clouds
6:55 PM33.4 °F29.3 °F85 %29.94 in10.0 miNorth (350°)13.8 mph0.00 inMostly Cloudy
7:55 PM32.9 °F27.5 °F81 %29.93 in10.0 miWNW (290°)12.7 mphMostly Cloudy
8:55 PM36.3 °F26.4 °F67 %29.93 in10.0 miNW (320°)23.0 mph28.8 mphClear
9:55 PM36.3 °F23.7 °F60 %29.94 in10.0 miNW (320°)21.9 mph36.8 mphPartly Cloudy
10:55 PM33.4 °F23.0 °F66 %29.96 in10.0 miNW (320°)21.9 mphClear
11:55 PM32.5 °F19.0 °F58 %29.99 in10.0 miNW (310°)23.0 mphClear
Hourly data recorded from KRCA, located miles away from Box Elder, South Dakota







STORIES FROM OUR PARTNERS